Location: Azul
(36.7830°S, 59.8500°W)
Time: 02:28:54
(UTC-03:00)

UWE-3 - Visible Passes

Search period start: 23 October 2021 00:00
Search period end: 02 November 2021 00:00
Orbit: 583 x 682 km, 97.7° (Epoch: 22 October)

Date Brightness Start Highest point End Pass type
(mag) Time Alt. Az. Time Alt. Az. Time Alt. Az.
23 Oct ? 03:39:53 18° NE 03:42:35 39° ESE 03:46:44 10° S visible
23 Oct ? 05:17:18 13° WNW 05:19:09 16° W 05:21:51 10° SW visible
24 Oct ? 04:01:08 24° NNE 04:03:42 69° ESE 04:08:10 10° S visible
25 Oct ? 02:48:14 10° ESE 02:49:10 11° ESE 02:50:08 10° SE visible
25 Oct ? 04:22:23 24° N 04:24:53 66° W 04:29:22 10° SSW visible
26 Oct ? 03:07:09 10° ENE 03:10:07 18° ESE 03:13:09 10° SSE visible
26 Oct ? 04:43:38 20° NNW 04:46:09 37° W 04:50:20 10° SSW visible
27 Oct ? 03:27:29 11° NE 03:31:07 30° ESE 03:35:03 10° S visible
27 Oct ? 05:04:53 13° NW 05:07:30 21° W 05:10:56 10° SW visible
28 Oct ? 03:48:44 15° NNE 03:52:11 51° ESE 03:56:36 10° S visible
28 Oct ? 05:27:04 10° WNW 05:28:54 12° W 05:30:46 10° WSW visible
29 Oct ? 04:10:01 17° NNE 04:13:20 89° WNW 04:17:55 10° SSW visible
30 Oct ? 02:56:21 10° E 02:58:42 14° ESE 03:01:05 10° SSE visible
30 Oct ? 04:31:17 16° N 04:34:34 50° W 04:39:01 10° SSW visible
31 Oct ? 03:16:09 10° ENE 03:19:40 23° ESE 03:23:17 10° SSE visible
31 Oct ? 04:52:34 13° NNW 04:55:52 29° W 04:59:50 10° SW visible
01 Nov ? 03:36:35 10° NE 03:40:42 39° ESE 03:44:59 10° S visible
01 Nov ? 05:14:21 10° NW 05:17:14 17° W 05:20:12 10° SW visible
